Location: Luxembourg
(49.6117°N, 6.1300°E)
Time: 14:08:39
(UTC+01:00)

Envisat - Pass Details

Date: 31 January 2019
Orbit: 764 x 766 km, 98.2° (Epoch: 19 February)

Event Time Altitude Azimuth Distance (km) Brightness Sun altitude
Rises 20:34:29 0° 210° (SSW) 3,222 6.5 -30.1°
Reaches altitude 10° 20:37:32 10° 230° (SW) 2,301 5.9 -30.6°
Maximum altitude 20:40:54 18° 272° (W) 1,836 5.7 -31.1°
Drops below altitude 10° 20:44:16 10° 313° (NW) 2,312 6.1 -31.7°
Sets 20:47:22 0° 333° (NNW) 3,244 6.7 -32.1°
